sat.trackr.live / text

‹ back to catalog

PICO-02A021

NORAD 60538 · 2024-149BY

PAYLOAD ACTIVE UNKNOWN

§ Identity

Operator
Country
IT
Launch date
2024-08-16
Launch site
AFWTR
Launch vehicle
Mass (kg)
RCS (m²)

External: N2YO · Heavens-Above · Gunter

§ Orbital elements

Epoch: 2026-09-21T11:01:26.239872Z

Period
95.74 min
Inclination
97.6679°
Eccentricity
0.0005957
Mean motion
15.03998051 rev/d
Perigee alt
550.5 km
Apogee alt
558.7 km
Semi-major
6,932.7 km
B*
1.6018e-4
RAAN
342.4769°
Arg perigee
60.5597°
Mean anomaly
299.6222°
Rev number
11,420

§ Raw data

PICO-02A0211 60538U 24149BY  26264.45933148  .00002152  00000+0  16018-3 0  99972 60538  97.6679 342.4769 0005957  60.5597 299.6222 15.03998051114202

JSON: /api/v1/satellites/60538 · /tle

For live sub-satellite position, see the globe view (requires WebGL).

§ Visibility from observer

Set your observer location to see the next 7 days of passes ≥ 10°. The values pass through the URL so the page stays shareable.

No JS? Fill the form by hand. The geolocation button needs JavaScript.